CZ-2D DEB, 44607

Orbit data source: Space-Track

CZ-2D DEB, 44607 is space debris in SSO originally from a launch on Fri, 11 Nov 2016 UTC launched from the Jiuquan Satellite Launch Center, China (JSC). Debris objects in space refer to the collection of defunct objects orbiting the Earth. Examples of debris include non-operational satellites, rocket bodies, and fragments generated from explosions, collisions, or faulty payload assembly.

Loading next visibility...
Identifier
44607, 2016-068G
Orbit
SSO
Last TLE update
2 days ago
Origin
Manufacturer
Unknown
Mission
Spacecraft
Bus & Motor
Unknown
Mass
Unknown
Launch date (UTC)
2016-11-11 (8 years ago)
Launch vehicle
Unknown
Launch site
Jiuquan Satellite Launch Center, China (JSC)
Object type
Payload
Rocket body
Debris
Shape & HBR
Unknown
Radar Cross Section
Small (<0.1 m²)

Expand to show TLE details & history

TLE from 2 days ago
0 CZ-2D DEB
1 44607U 16068G   25127.27100631  .00000818  00000-0  52268-3 0  9992
2 44607  98.4675 286.6740 0204385 222.8394 135.6690 13.96273766424175
Epoch: 2025-05-07T06:30Z
Definitive object data (Epoch: 2025-05-07T06:30:14.945Z)
Latitude
-0.00001°
Longitude
-36.24652°
Altitude
1,017.596 km
Speed
7.288 km/s
True Right ascension
19h 06m 41s
True Declination
0° 00' 00"
Sunlit
Object was in daylight at TLE epoch
Visualization TLE readout
Latitude
77.99718°
Longitude
-78.53901°
Altitude
1,025.128 km
Speed
7.293 km/s
Apparent Right ascension
02h 43m 56s
Apparent Declination
42° 26' 31"
Sunlit
Object is in daylight
Visualization observer readout
Local Sidereal Time
15:12:42
Azimuth
5.343° NNE
Elevation
-7.385°
Doppler factor
1
Orbital elements
Apogee altitude
1,052.738 km
Perigee altitude
755.07 km
Semi-major axis
7,282.041 km
Eccentricity
0.0204385
Inclination
98.4675°
RAAN
286.674°
Arg. of periapsis
222.8394°
True anomaly
137.27605°
Mean anomaly
135.669°
Eccentric anomaly
136.47545°
Mean motion
3.49272 °/min
BSTAR
0.00052268
Orbital period
103.07 mins
Loading maneuver chart data...
Loading SW <> Apogee altitude chart data...
Loading historical data...
Loading historical data...
Loading historical data...
Loading historical data...
Loading historical data...
Loading historical data...
Loading historical data...

CZ-2D DEB Visibility forecast

Observer location: undefined°, undefined°

Span
Click to sort rows by Start time (UTC) header in descending order
Start Az.
Max El. time (UTC)
Max El. Az.
Max El.
End time (UTC)
End Az.
10 mins2025-05-09 10:13:45.885Z149.794° SSE2025-05-09 10:17:45.885Z98.93° ESE42.055°2025-05-09 10:23:45.885Z353.871° N
7 mins2025-05-09 11:57:45.885Z238.011° WSW2025-05-09 12:00:45.885Z271.917° WNW19.246°2025-05-09 12:04:45.885Z312.144° NW
8 mins2025-05-09 22:45:45.885Z36.591° NE2025-05-09 22:49:45.885Z97.497° ESE30.956°2025-05-09 22:53:45.885Z158.167° S
8 mins2025-05-10 00:27:45.885Z344.773° N2025-05-10 00:31:45.885Z288.167° WNW25.832°2025-05-10 00:35:45.885Z238.097° WSW
|